WA2GUG Weather Reports


time (UTC)temp
F
wind
direction
speed
knots
gust
knots
rain 1hr
in
rain 24hr
in
rain mn
in
humidity
%
barometer
mb
20260904160204 88 309 0.0 0.0 0.00 0.00 0.00 99 1008.2
20260904155704 86 179 0.0 0.0 0.00 0.00 0.00 99 1009.0
20260904155204 86 39 0.0 0.0 0.00 0.00 0.00 99 1009.0
20260904154704 86 40 0.0 0.9 0.00 0.00 0.00 99 1009.0
20260904154204 87 48 0.0 0.9 0.00 0.00 0.00 99 1009.0
20260904153704 89 80 0.0 0.0 0.00 0.00 0.00 99 1008.2
20260904153204 91 179 0.0 0.0 0.00 0.00 0.00 99 1008.2
20260904152704 89 86 0.0 0.0 0.00 0.00 0.00 99 1008.2
20260904152204 87 45 0.0 0.0 0.00 0.00 0.00 99 1008.2
20260904151705 85 85 0.0 0.0 0.00 0.00 0.00 99 1009.0
20260904151204 86 41 0.0 0.0 0.00 0.00 0.00 99 1009.0
20260904150704 90 47 0.0 0.0 0.00 0.00 0.00 99 1009.0
20260904150204 90 183 0.0 0.9 0.00 0.00 0.00 99 1009.0
20260904145704 88 41 0.0 0.9 0.00 0.00 0.00 99 1009.0
20260904145204 88 82 0.0 0.0 0.00 0.00 0.00 99 1009.0
20260904144704 88 88 0.0 0.0 0.00 0.00 0.00 99 1009.0
20260904144204 88 313 0.0 0.0 0.00 0.00 0.00 99 1009.0
20260904143704 87 46 0.0 0.0 0.00 0.00 0.00 99 1009.0
20260904143204 86 2 0.0 0.9 0.00 0.00 0.00 99 1009.0
20260904142704 86 134 0.0 0.9 0.00 0.00 0.00 99 1009.0
20260904142205 86 4 0.0 0.0 0.00 0.00 0.00 99 1009.0
20260904141704 85 318 0.0 0.0 0.00 0.00 0.00 99 1009.0
20260904141204 85 51 0.0 0.0 0.00 0.00 0.00 99 1009.0
20260904140704 84 50 0.0 1.7 0.00 0.00 0.00 99 1009.0
20260904140204 84 78 0.0 1.7 0.00 0.00 0.00 99 1009.0
20260904135704 85 49 0.0 0.0 0.00 0.00 0.00 99 1009.0
20260904135204 84 141 0.0 0.0 0.00 0.00 0.00 99 1009.0
20260904134704 84 46 0.0 0.9 0.00 0.00 0.00 99 1009.0
20260904134204 84 315 0.0 0.9 0.00 0.00 0.00 99 1009.0
20260904133704 83 22 0.0 5.2 0.00 0.00 0.00 99 1009.0
20260904133204 0 46 0.9 5.2 0.00 0.00 0.00 99 1009.0
20260904132704 0 8 1.7 4.3 0.00 0.00 0.00 99 1009.0
20260904132204 0 8 1.7 3.5 0.00 0.00 0.00 99 1009.0
20260904131704 0 262 0.9 3.5 0.00 0.00 0.00 99 1009.0
20260904131204 0 11 1.7 3.5 0.00 0.00 0.00 99 1009.0
20260904130704 0 352 0.9 3.5 0.00 0.00 0.00 99 1009.0
20260904130204 0 4 0.9 3.5 0.00 0.00 0.00 99 1009.0
20260904125704 0 225 0.0 3.5 0.00 0.00 0.00 99 1009.0
20260904125204 0 85 0.0 0.9 0.00 0.00 0.00 99 1009.0
20260904124704 0 95 0.0 0.0 0.00 0.00 0.00 99 1009.0
20260904124204 0 33 0.0 0.0 0.00 0.00 0.00 99 1009.0
20260904123704 0 182 0.0 0.0 0.00 0.00 0.00 99 1009.0
20260904123204 0 14 0.0 0.0 0.00 0.00 0.00 99 1009.0
20260904122704 0 87 0.0 0.0 0.00 0.00 0.00 99 1009.0
20260904122204 0 90 0.0 0.0 0.00 0.00 0.00 99 1008.2
20260904121704 0 1 0.0 0.0 0.00 0.00 0.00 99 1008.2
20260904121204 0 190 0.0 0.0 0.00 0.00 0.00 99 1008.2
20260904120704 0 190 0.0 0.0 0.00 0.00 0.00 99 1009.0
20260904120204 0 10 0.0 0.0 0.00 0.00 0.00 99 1009.0
20260904115704 0 96 0.0 0.0 0.00 0.00 0.00 99 1008.2
20260904115204 0 48 0.0 0.0 0.00 0.00 0.00 99 1008.2
20260904114704 0 183 0.0 0.0 0.00 0.00 0.00 99 1008.1
20260904114204 0 157 0.0 0.0 0.00 0.00 0.00 99 1008.1
20260904113704 0 145 0.0 0.0 0.00 0.00 0.00 99 1008.2
20260904113204 0 91 0.0 0.0 0.00 0.00 0.00 99 1008.1
20260904112704 0 34 0.0 0.0 0.00 0.00 0.00 99 1008.0
20260904112204 0 131 0.0 0.0 0.00 0.00 0.00 99 1008.0
20260904111704 0 151 0.0 0.0 0.00 0.00 0.00 99 1008.0
20260904111204 0 141 0.0 0.0 0.00 0.00 0.00 99 1008.0
20260904110704 0 136 0.0 0.0 0.00 0.00 0.00 99 1008.0
20260904110204 0 156 0.0 0.0 0.00 0.00 0.00 99 1008.0
20260904105704 0 135 0.0 0.0 0.00 0.00 0.00 99 1008.0
20260904105204 0 135 0.0 0.0 0.00 0.00 0.00 99 1008.0
20260904104704 0 133 0.0 0.0 0.00 0.00 0.00 99 1008.0
20260904104204 0 0 0.0 0.0 0.00 0.00 0.00 99 1008.0
20260904103704 0 0 0.0 0.0 0.00 0.00 0.00 99 1008.0
20260904103204 0 34 0.0 0.0 0.00 0.00 0.00 99 1008.0
20260904102704 0 123 0.0 0.0 0.00 0.00 0.00 99 1008.0
20260904102204 0 135 0.0 0.0 0.00 0.00 0.00 99 1008.0
20260904101704 0 135 0.0 0.0 0.00 0.00 0.00 99 1008.0
20260904101204 0 136 0.0 0.0 0.00 0.00 0.00 99 1008.0
20260904100704 0 157 0.0 0.0 0.00 0.00 0.00 99 1008.0
20260904100204 0 136 0.0 0.0 0.00 0.00 0.00 99 1008.0
20260904095704 0 138 0.0 0.0 0.00 0.00 0.00 99 1008.0
20260904095204 0 154 0.0 0.0 0.00 0.00 0.00 99 1008.0
20260904094704 0 125 0.0 0.0 0.00 0.00 0.00 99 1008.0
20260904094204 0 131 0.0 0.0 0.00 0.00 0.00 99 1008.0
20260904093704 0 101 0.0 0.0 0.00 0.00 0.00 99 1008.0
20260904093204 0 137 0.0 0.0 0.00 0.00 0.00 99 1008.0
20260904092704 0 88 0.0 0.0 0.00 0.00 0.00 99 1008.0
20260904092204 0 97 0.0 0.0 0.00 0.00 0.00 99 1008.0
20260904091704 0 97 0.0 0.0 0.00 0.00 0.00 99 1008.0
20260904091204 0 114 0.0 0.0 0.00 0.00 0.00 99 1008.0
20260904090704 0 101 0.0 0.0 0.00 0.00 0.00 99 1008.0
20260904090204 0 131 0.0 0.0 0.00 0.00 0.00 99 1008.0
20260904085704 0 123 0.0 0.0 0.00 0.00 0.00 99 1008.0
20260904085204 0 90 0.0 0.0 0.00 0.00 0.00 99 1008.0
20260904084704 0 90 0.0 0.0 0.00 0.00 0.00 99 1008.0
20260904084204 0 90 0.0 0.0 0.00 0.00 0.00 99 1008.0
20260904083704 0 90 0.0 0.0 0.00 0.00 0.00 99 1008.0
20260904083204 0 90 0.0 0.0 0.00 0.00 0.00 99 1008.0
20260904082704 0 65 0.0 0.0 0.00 0.00 0.00 99 1008.0
20260904082204 0 90 0.0 0.0 0.00 0.00 0.00 99 1008.0
20260904081704 0 90 0.0 0.0 0.00 0.00 0.00 99 1008.0
20260904081204 0 99 0.0 0.0 0.00 0.00 0.00 99 1008.0
20260904080704 0 121 0.0 0.0 0.00 0.00 0.00 99 1008.0
20260904080204 0 59 0.0 0.0 0.00 0.00 0.00 99 1008.0
20260904075704 0 92 0.0 0.0 0.00 0.00 0.00 99 1008.0
20260904075204 0 135 0.0 0.0 0.00 0.00 0.00 99 1008.0
20260904074704 0 135 0.0 0.0 0.00 0.00 0.00 99 1008.0
20260904074204 0 130 0.0 0.0 0.00 0.00 0.00 99 1008.0
20260904073704 0 112 0.0 0.0 0.00 0.00 0.00 99 1008.0
20260904073204 0 112 0.0 0.0 0.00 0.00 0.00 99 1008.0
20260904072704 0 93 0.0 0.0 0.00 0.00 0.00 99 1008.0
20260904072204 0 108 0.0 0.0 0.00 0.00 0.00 99 1008.0
20260904071704 0 140 0.0 0.0 0.00 0.00 0.00 99 1008.0
20260904071204 0 135 0.0 0.0 0.00 0.00 0.00 99 1008.0
20260904070704 0 135 0.0 0.0 0.00 0.00 0.00 99 1008.0
20260904070204 0 135 0.0 0.0 0.00 0.00 0.00 99 1008.0
20260904065704 0 135 0.0 0.0 0.00 0.00 0.00 99 1008.0
20260904065204 0 135 0.0 0.0 0.00 0.00 0.00 99 1008.0
20260904064704 0 135 0.0 0.0 0.00 0.00 0.00 99 1008.0
20260904064204 0 135 0.0 0.0 0.00 0.00 0.00 99 1008.0
20260904063704 0 135 0.0 0.0 0.00 0.00 0.00 99 1008.0
20260904063204 0 135 0.0 0.0 0.00 0.00 0.00 99 1008.0
20260904062704 0 135 0.0 0.0 0.00 0.00 0.00 99 1008.0
20260904062204 0 135 0.0 0.0 0.00 0.00 0.00 99 1008.0
20260904061704 0 135 0.0 0.0 0.00 0.00 0.00 99 1008.0
20260904061204 0 135 0.0 0.0 0.00 0.00 0.00 99 1008.0
20260904060704 0 135 0.0 0.0 0.00 0.00 0.00 99 1008.0
20260904060204 0 135 0.0 0.0 0.00 0.00 0.00 99 1008.0
20260904055704 0 135 0.0 0.0 0.00 0.00 0.00 99 1008.0
20260904055204 0 139 0.0 0.0 0.00 0.00 0.00 99 1008.0
20260904054704 0 156 0.0 0.0 0.00 0.00 0.00 99 1008.0
20260904054204 0 142 0.0 0.0 0.00 0.00 0.00 99 1008.0
20260904053704 0 155 0.0 0.0 0.00 0.00 0.00 99 1008.0
20260904053204 0 109 0.0 0.0 0.00 0.00 0.00 99 1008.0
20260904052704 0 333 0.0 0.0 0.00 0.00 0.00 99 1008.0
20260904052204 0 0 0.0 0.0 0.00 0.00 0.00 99 1008.0
20260904051704 0 0 0.0 0.0 0.00 0.00 0.00 99 1008.0
20260904051204 0 26 0.0 0.0 0.00 0.00 0.00 99 1008.0
20260904050704 0 134 0.0 0.0 0.00 0.00 0.00 99 1008.0
20260904050204 0 109 0.0 0.0 0.00 0.00 0.00 99 1008.0
20260904045704 0 90 0.0 0.0 0.00 0.00 0.00 99 1008.0
20260904045204 0 90 0.0 0.0 0.00 0.00 0.00 99 1008.0
20260904044704 0 90 0.0 0.0 0.00 0.00 0.00 99 1008.0
20260904044204 0 120 0.0 0.0 0.00 0.00 0.00 99 1008.0
20260904043704 0 135 0.0 0.0 0.00 0.00 0.00 99 1008.0
20260904043204 0 136 0.0 0.0 0.00 0.00 0.00 99 1008.1
20260904042704 0 163 0.0 0.0 0.00 0.00 0.00 99 1008.2
20260904042204 0 265 0.0 0.0 0.00 0.00 0.00 99 1008.2
20260904041704 0 270 0.0 0.0 0.00 0.00 0.00 99 1008.0
20260904041204 0 135 0.0 0.0 0.00 0.00 0.00 99 1008.0
20260904040704 0 183 0.0 0.0 0.00 0.00 0.00 99 1008.0
20260904040204 0 204 0.0 0.0 0.00 0.00 0.00 99 1008.0
20260904035703 0 0 0.0 0.0 0.00 0.00 0.00 99 1008.1
20260904035204 0 36 0.0 0.0 0.00 0.00 0.00 99 1008.1
20260904034703 0 168 0.0 0.0 0.00 0.00 0.00 99 1008.1
20260904034203 0 119 0.0 0.0 0.00 0.00 0.00 99 1008.1
20260904033703 0 165 0.0 0.0 0.00 0.00 0.00 99 1009.0
20260904033203 0 163 0.0 0.0 0.00 0.00 0.00 99 1008.2
20260904032703 0 118 0.0 0.0 0.00 0.00 0.00 99 1009.0
20260904032203 0 119 0.0 0.0 0.00 0.00 0.00 99 1008.1
20260904031704 0 144 0.0 0.0 0.00 0.00 0.00 99 1008.1
20260904031203 0 203 0.0 0.0 0.00 0.00 0.00 99 1008.0
20260904030703 0 100 0.0 0.0 0.00 0.00 0.00 99 1009.0
20260904030203 0 299 0.0 0.0 0.00 0.00 0.00 99 1008.2
20260904025703 0 164 0.0 0.0 0.00 0.00 0.00 99 1008.2
20260904025204 0 167 0.0 0.0 0.00 0.00 0.00 99 1008.2
20260904024703 0 359 0.0 0.0 0.00 0.00 0.00 99 1009.0
20260904024203 0 342 0.0 0.0 0.00 0.00 0.00 99 1008.2
20260904023703 0 94 0.0 0.0 0.00 0.00 0.00 99 1009.0
20260904023203 0 137 0.0 0.0 0.00 0.00 0.00 99 1008.2
20260904022703 0 135 0.0 0.0 0.00 0.00 0.00 99 1009.0
20260904022203 0 147 0.0 0.0 0.00 0.00 0.00 99 1009.0
20260904021704 0 292 0.0 0.0 0.00 0.00 0.00 99 1009.0
20260904021203 0 292 0.0 0.0 0.00 0.00 0.00 99 1009.0
20260904020703 0 292 0.0 0.0 0.00 0.00 0.00 99 1009.0
20260904020203 0 292 0.0 0.0 0.00 0.00 0.00 99 1009.0
20260904015703 0 292 0.0 0.0 0.00 0.00 0.00 99 1009.0
20260904015203 0 304 0.0 0.0 0.00 0.00 0.00 99 1009.0
20260904014703 0 349 0.0 0.0 0.00 0.00 0.00 99 1009.0
20260904014203 0 111 0.0 0.0 0.00 0.00 0.00 99 1009.0
20260904013703 0 135 0.0 0.0 0.00 0.00 0.00 99 1009.0
20260904013203 0 135 0.0 0.0 0.00 0.00 0.00 99 1009.0
20260904012703 0 135 0.0 0.0 0.00 0.00 0.00 99 1009.0
20260904012203 69 118 0.0 0.0 0.00 0.00 0.00 99 1009.0
20260904011703 70 57 0.0 0.0 0.00 0.00 0.00 99 1009.0
20260904011203 70 45 0.0 0.0 0.00 0.00 0.00 99 1009.0
20260904010703 70 33 0.0 0.0 0.00 0.00 0.00 99 1009.0
20260904010203 70 135 0.0 0.0 0.00 0.00 0.00 99 1009.0
20260904005703 70 134 0.0 0.0 0.00 0.00 0.00 99 1009.0
20260904005203 70 135 0.0 0.0 0.00 0.00 0.00 99 1009.0
20260904004703 70 135 0.0 0.0 0.00 0.00 0.00 99 1009.0
20260904004203 71 69 0.0 0.0 0.00 0.00 0.00 99 1009.0
20260904003703 71 132 0.0 0.0 0.00 0.00 0.00 99 1009.0
20260904003203 71 130 0.0 0.0 0.00 0.00 0.00 99 1009.0
20260904002703 71 90 0.0 0.0 0.00 0.00 0.00 99 1009.0
20260904002203 71 142 0.0 0.0 0.00 0.00 0.00 99 1009.0
20260904001703 72 122 0.0 0.0 0.00 0.00 0.00 99 1009.0
20260904001203 72 135 0.0 0.0 0.00 0.00 0.00 99 1008.2
20260904000703 72 153 0.0 0.0 0.00 0.00 0.00 99 1009.0
20260904000204 73 157 0.0 0.0 0.00 0.00 0.00 99 1009.0
20260903235703 73 144 0.0 0.0 0.00 0.00 0.00 99 1008.2
20260903235203 73 177 0.0 0.0 0.00 0.00 0.00 99 1008.2
20260903234703 74 151 0.0 0.0 0.00 0.00 0.00 99 1009.0
20260903234203 74 160 0.0 0.0 0.00 0.00 0.00 99 1008.2
20260903233703 74 135 0.0 0.0 0.00 0.00 0.00 99 1009.0
20260903233203 74 135 0.0 0.0 0.00 0.00 0.00 99 1009.0
20260903232703 74 169 0.0 0.0 0.00 0.00 0.00 99 1008.1
20260903232203 74 191 0.0 0.0 0.00 0.00 0.00 99 1008.1
20260903231703 75 180 0.0 0.0 0.00 0.00 0.00 99 1008.1
20260903231203 75 221 0.0 0.0 0.00 0.00 0.00 99 1008.0
20260903230703 76 213 0.0 0.0 0.00 0.00 0.00 99 1008.0
20260903230203 77 169 0.0 0.0 0.00 0.00 0.00 99 1008.1
20260903225703 78 177 0.0 0.0 0.00 0.00 0.00 99 1008.2
20260903225203 78 177 0.0 0.0 0.00 0.00 0.00 99 1008.2
20260903224703 79 181 0.0 0.0 0.00 0.00 0.00 99 1008.1
20260903224203 81 202 0.0 0.0 0.00 0.00 0.00 99 1008.0
20260903223703 82 203 0.0 0.0 0.00 0.00 0.00 99 1008.0
20260903223203 83 225 0.0 0.0 0.00 0.00 0.00 99 1008.0
20260903222703 84 225 0.0 0.0 0.00 0.00 0.00 99 1008.1
20260903222203 86 225 0.0 0.0 0.00 0.00 0.00 99 1008.0
20260903221703 88 225 0.0 0.0 0.00 0.00 0.00 99 1008.0
20260903221203 90 225 0.0 0.0 0.00 0.00 0.00 99 1008.0
20260903220703 90 225 0.0 0.0 0.00 0.00 0.00 99 1008.0
20260903220203 89 218 0.0 0.0 0.00 0.00 0.00 99 1008.0
20260903215703 89 181 0.0 0.0 0.00 0.00 0.00 99 1008.0
20260903215203 89 172 0.0 0.0 0.00 0.00 0.00 99 1008.0
20260903214703 88 177 0.0 0.0 0.00 0.00 0.00 99 1008.0
20260903214203 88 78 0.0 0.0 0.00 0.00 0.00 99 1008.0
20260903213703 90 150 0.0 0.0 0.00 0.00 0.00 99 1008.0
20260903213203 92 349 0.0 0.0 0.00 0.00 0.00 99 1008.0
20260903212703 94 45 0.0 0.0 0.00 0.00 0.00 99 1008.0
20260903212203 94 330 0.0 0.0 0.00 0.00 0.00 99 1008.0
20260903211703 96 9 0.0 0.0 0.00 0.00 0.00 99 1008.0
20260903211203 98 43 0.0 0.0 0.00 0.00 0.00 99 1008.0
20260903210703 99 12 0.0 0.0 0.00 0.00 0.00 99 1008.0
20260903210203 101 249 0.0 0.0 0.00 0.00 0.00 99 1008.0
20260903205703 102 349 0.0 0.0 0.00 0.00 0.00 99 1008.0
20260903205203 101 8 0.0 0.0 0.00 0.00 0.00 99 1008.0
20260903204703 101 41 0.0 0.0 0.00 0.00 0.00 99 1008.0
20260903204203 99 186 0.0 0.0 0.00 0.00 0.00 99 1008.0
20260903203703 98 352 0.0 0.0 0.00 0.00 0.00 99 1008.0
20260903203203 99 22 0.0 0.0 0.00 0.00 0.00 99 1008.0
20260903202703 100 84 0.0 0.0 0.00 0.00 0.00 99 1008.0
20260903202203 100 305 0.0 0.0 0.00 0.00 0.00 99 1008.0
20260903201703 98 173 0.0 0.0 0.00 0.00 0.00 99 1008.0
20260903201203 98 313 0.0 0.0 0.00 0.00 0.00 99 1008.0
20260903200703 98 69 0.0 0.0 0.00 0.00 0.00 99 1008.0
20260903200203 97 4 0.0 0.0 0.00 0.00 0.00 99 1008.0
20260903195703 96 39 0.0 0.9 0.00 0.00 0.00 99 1008.0
20260903195203 97 358 0.0 0.9 0.00 0.00 0.00 99 1008.0
20260903194703 96 89 0.0 0.9 0.00 0.00 0.00 99 1008.0
20260903194203 95 44 0.0 0.9 0.00 0.00 0.00 99 1008.0
20260903193703 96 41 0.0 0.0 0.00 0.00 0.00 99 1008.0
20260903193203 97 34 0.0 0.0 0.00 0.00 0.00 99 1008.0
20260903192703 0 354 0.0 0.0 0.00 0.00 0.00 99 1008.0
20260903192203 0 272 0.0 0.0 0.00 0.00 0.00 99 1008.0
20260903191703 86 243 0.0 0.0 0.00 0.00 0.00 99 1008.0
20260903191203 85 145 0.0 0.0 0.00 0.00 0.00 99 1008.2
20260903190703 85 223 0.0 0.0 0.00 0.00 0.00 99 1008.2
20260903190203 84 239 0.0 0.0 0.00 0.00 0.00 99 1008.2
20260903185703 84 229 0.0 0.0 0.00 0.00 0.00 99 1008.2
20260903185203 84 152 0.0 0.0 0.00 0.00 0.00 99 1009.0
20260903184703 84 216 0.0 0.0 0.00 0.00 0.00 99 1009.0
20260903184203 85 168 0.0 0.0 0.00 0.00 0.00 99 1009.0
20260903183703 87 220 0.0 0.0 0.00 0.00 0.00 99 1009.0
20260903183203 90 267 0.0 0.0 0.00 0.00 0.00 99 1009.0
20260903182703 93 264 0.0 0.0 0.00 0.00 0.00 99 1009.0
20260903182203 96 266 0.0 0.0 0.00 0.00 0.00 99 1009.0
20260903181703 0 221 0.0 0.0 0.00 0.00 0.00 99 1009.0
20260903181203 92 309 0.0 0.0 0.00 0.00 0.00 99 1009.0
20260903180703 92 293 0.0 0.0 0.00 0.00 0.00 99 1009.0
20260903180203 0 240 0.0 0.0 0.00 0.00 0.00 99 1009.0
20260903175703 0 243 0.0 0.0 0.00 0.00 0.00 99 1009.0
20260903175203 0 228 0.0 0.0 0.00 0.00 0.00 99 1009.0
20260903174703 85 179 0.0 0.0 0.00 0.00 0.00 99 1009.0
20260903174203 85 249 0.0 0.0 0.00 0.00 0.00 99 1009.0
20260903173703 85 278 0.0 0.0 0.00 0.00 0.00 99 1009.0
20260903173203 0 198 0.0 0.0 0.00 0.00 0.00 99 1009.0
20260903172703 0 264 0.0 0.0 0.00 0.00 0.00 99 1009.0
20260903172203 0 233 0.0 0.0 0.00 0.00 0.00 99 1009.0
20260903171703 0 163 0.0 0.0 0.00 0.00 0.00 99 1009.0
20260903171203 0 252 0.0 0.0 0.00 0.00 0.00 99 1009.0
20260903170703 0 294 0.0 0.0 0.00 0.00 0.00 99 1009.0
20260903170203 0 276 0.0 0.0 0.00 0.00 0.00 99 1009.0
20260903165703 0 171 0.0 0.0 0.00 0.00 0.00 99 1009.0
20260903165203 0 166 0.0 0.0 0.00 0.00 0.00 99 1009.0
20260903164703 0 54 0.0 0.0 0.00 0.00 0.00 99 1009.0
20260903164203 0 261 0.0 0.0 0.00 0.00 0.00 99 1009.0
20260903163703 0 260 0.0 0.0 0.00 0.00 0.00 99 1009.0
20260903163203 0 13 0.0 0.0 0.00 0.00 0.00 99 1009.0
20260903162703 0 312 0.0 0.0 0.00 0.00 0.00 99 1009.0
20260903162203 0 327 0.0 0.0 0.00 0.00 0.00 99 1009.0
20260903161703 0 285 0.0 0.0 0.00 0.00 0.00 99 1009.0
20260903161203 0 271 0.0 0.0 0.00 0.00 0.00 99 1009.0
20260903160703 0 278 0.0 0.0 0.00 0.00 0.00 99 1009.0